BEIDOU M6

Last updated on April 2, 2019, 3:15 a.m. UTC

1 38775U 12050B   19090.93141219  .00000006  00000-0  00000+0 0  9992
2 38775  54.9355 151.2575 0022979 245.9641  36.6450  1.86232149 44603
UTC
Height (km)
Latitude
Longitude
Inclination
Orbital Period
UTC large
Height (km)
Speed (km/s)
/
Latitude / Longitude
Inclination (degrees)
Orbital Period (minutes)
Azimuth
Elevation
Range (km)
Doppler Factor
iOS Compass Heading
iOS Angle

Next 30 passes for location: Hong Kong

Rise time Rise Azimuth (degrees) Set time Set Azimuth (degrees) Duration Max altitude (degrees)

No matching passes for this satellites